Regional Weather Roundup
Issued by NWS

Home | Current Version | Previous Version | Graphics & Text | Print | Product List | Glossary On
Versions: 1 2 3 4 5 6 7 8 9 10 11 12 13 14 15 16 17 18 19 20 21 22 23 24 25 26 27 28 29 30 31 32 33 34 35 36 37 38 39 40 41 42 43 44 45 46 47 48 49 50
000
ASUS43 KOAX 300210
RWRNE

WEATHER ROUNDUP FOR NEBRASKA
NATIONAL WEATHER SERVICE OMAHA NE
900 PM CDT MON AUG 29 2016

NOTES: SATELLITE DATA IS BEING USED TO AUGMENT CLOUD COVER ABOVE
       12000 FEET.
       "FAIR" INDICATES FEW OR NO CLOUDS BELOW 12,000 FEET WITH NO
       SIGNIFICANT WEATHER AND/OR OBSTRUCTIONS TO VISIBILITY.

  * THESE STATIONS DO NOT REPORT WEATHER SUCH AS RAIN...SNOW OR FOG.

NEZ001>004-019>022-054>056-300300-
NEBRASKA PANHANDLE

CITY           SKY/WX    TMP DP  RH WIND       PRES   REMARKS
SCOTTSBLUFF    MOCLDY    71  59  65 E7        30.25R
ALLIANCE       PTCLDY    66  60  81 CALM      30.25R
CHADRON        PTCLDY    75  58  55 S9        30.21S
KIMBALL        CLOUDY    68  57  68 CALM      30.30F
SIDNEY         PTCLDY    66  59  78 S7        30.27S
$$

NEZ057>060-069>072-079>082-300300-
SOUTHWEST NEBRASKA

CITY           SKY/WX    TMP DP  RH WIND       PRES   REMARKS
NORTH PLATTE   CLOUDY    71  67  87 SE5       30.21R
IMPERIAL       CLOUDY    71  61  70 S6        30.22S
LEXINGTON      CLOUDY    74  67  78 CALM      30.21R
MCCOOK         CLOUDY    72  66  81 SE5       30.21R
$$

NEZ005>010-023>029-035>040-094-300300-
NORTH CENTRAL NEBRASKA

CITY           SKY/WX    TMP DP  RH WIND       PRES   REMARKS
VALENTINE      CLOUDY    74  61  63 S3        30.18R
AINSWORTH      MOCLDY    70  64  82 S6        30.19S
BROKEN BOW     CLOUDY    70  67  90 CALM      30.20R
O`NEILL        PTCLDY    75  65  70 S3        30.17S
ORD            CLOUDY    73  65  75 S5        30.17R
THEDFORD       CLOUDY    73  62  68 S5        30.21S
$$

NEZ041-046>049-061>064-073>077-083>087-300300-
SOUTH CENTRAL NEBRASKA

CITY           SKY/WX    TMP DP  RH WIND       PRES   REMARKS
GRAND ISLAND   CLOUDY    70  65  84 CALM      30.20S
AURORA         PTCLDY    70  70  99 S3        30.19F
HASTINGS       CLOUDY    70  68  93 SE3       30.21R
HEBRON         MOCLDY    70  66  88 CALM      30.17S
HOLDREGE       CLOUDY    71  65  81 SW3       30.20S
KEARNEY *      MOCLDY    72  64  78 S7        30.19S
YORK           MOCLDY    72  68  88 CALM      30.19F
$$

NEZ011>018-030>034-042>045-300300-
NORTHEAST NEBRASKA

CITY           SKY/WX    TMP DP  RH WIND       PRES   REMARKS
NORFOLK        CLOUDY    71  65  81 E5        30.17R
ALBION         CLOUDY    71  65  81 CALM      30.17F
BLAIR          CLOUDY    70  69  96 NE12      30.23R
FREMONT        CLOUDY    71  68  92 E7        30.20R
TEKAMAH        RAIN      69  66  90 SE7       30.22R FOG
WAYNE          CLOUDY    71  68  90 E12       30.20R
$$

NEZ050>053-065>068-078-088>093-300300-
SOUTHEAST NEBRASKA

CITY           SKY/WX    TMP DP  RH WIND       PRES   REMARKS
LINCOLN        CLOUDY    72  68  87 NE6       30.19R
OMAHA EPPLEY   RAIN      71  68  90 N3        30.22R FOG
BEATRICE       CLOUDY    69  68  96 NW6       30.17R
FALLS CITY     CLOUDY    75  67  76 E7        30.13R THUNDER
NEBRASKA CITY  HVY RAIN  71  71 100 N14       30.19R
PLATTSMOUTH    RAIN      69  69  97 CALM      30.23R
$$

NEZ044-045-051>053-067-300300-
OMAHA AREA

CITY           SKY/WX    TMP DP  RH WIND       PRES   REMARKS
OMAHA EPPLEY   RAIN      71  68  90 N3        30.22R FOG
BLAIR          CLOUDY    70  69  96 NE12      30.23R
FREMONT        CLOUDY    71  68  92 E7        30.20R
MILLARD        RAIN      71  69  93 E3        30.21R
OFFUTT AFB     TSTM      70  70 100 N5        30.21R
PLATTSMOUTH    RAIN      69  69  97 CALM      30.23R
WAHOO          MOCLDY    70  68  93 SE5       30.20R
$$



USA.gov is the U.S. government's official web portal to all federal, state and local government web resources and services.